User: anonymous   Login
Location: *
(33.3200°N, 8.3381°W)
Time: 11:31:56
(UTC+00:00)
Language:

SL-24 R/B - Orbit

View from above orbital plane
View from above orbital plane
View from above satellite
View from above satellite

Ground track
Ground track

The orbit data is extracted from the following two-line orbital elements,

1 31699U 07026B   20184.82919071 +.00000027 +00000-0 +12853-4 0  9997
2 31699 097.4419 026.3057 0347943 260.7952 105.9353 14.41368414685795
Epoch (UTC): 02 July 2020 19:54:02
Eccentricity: 0.0347943
inclination: 97.4419°
perigee height: 506 km
apogee height: 1002 km
right ascension of ascending node: 26.3057°
argument of perigee: 260.7952°
revolutions per day: 14.41368414
mean anomaly at epoch: 105.9353°
orbit number at epoch: 68579

The dashed part of the orbit path shows where the satellite is in the earth's shadow,  

DLR